Showing default

GAOFEN 9 04, 46025

Orbit data source: Space-Track

GAOFEN 9 04, 46025 is a payload satellite owned by GGKGJ (CN) in SSO that was launched on Thu, 06 Aug 2020 UTC via a CHANG ZHENG 2D launch vehicle from the Jiuquan Satellite Launch Center, China (JSC). Payload-class satellites include a variety of spacecraft equipped with specific instruments for various scientific and technological missions. These include communications satellites like Starlink; space stations such as the ISS; scientific satellites like the Hubble; Earth observation satellites from companies like Planet Labs, Umbra, and HawkEye 360; GPS; miniature CubeSats for education and research; and military/defense satellites.

Loading next visibility...
Identifier
46025, 2020-054A
Orbit
SSO
Country
Flag of CNCN / PRC
Related business
Manufacturer
DFH
Mission
Operational Defense Imaging
Bus & Motor
CAST-3000, AOCS
Mass
~1,700 kg wet, ~1,500 kg dry
Launch date (UTC)
2020-08-06 (5 years ago)
Launch vehicle
CHANG ZHENG 2D
Launch site
Jiuquan Satellite Launch Center, China (JSC)
Object type
Payload
Rocket body
Debris
Shape & HBR
Box + 2 Pan, Unknown HBR
Radar Cross Section
4.991 m², Large (>1 m²)

Expand to show TLE details & history
Last TLE update: 4 hours ago

TLE from 4 hours ago
0 GAOFEN 9 04
1 46025U 20054A   25261.30572352  .00008784  00000-0  30496-3 0  9993
2 46025  97.2802 329.8985 0011618 353.2342   6.8740 15.29942501284681
Epoch: 2025-09-18T07:20Z
TLE epoch observation values (Epoch: 2025-09-18T07:20:14.512Z)
Latitude
-0.00001°
Longitude
-137.63119°
Altitude
471.184 km
Speed
7.635 km/s
True Right ascension
21h 59m 35s
True Declination
0° 00' 00"
Sunlit
Object was in full shadow at epoch
Visualization orbit readout
Latitude
Unknown
Longitude
Unknown
Altitude
Unknown
Speed
Unknown
Apparent Right ascension
Unknown
Apparent Declination
Unknown
Sunlit
N/A
Visualization observer readout
Local Sidereal Time
04:18:35
Azimuth
Unknown
Elevation
Unknown
Doppler factor
Unknown
Orbital elements
Apogee altitude
480.891 km
Perigee altitude
464.972 km
Semi-major axis
6,851.068 km
Eccentricity
0.00116
Inclination
97.2802°
RAAN
329.8985°
Arg. of periapsis
353.2342°
True anomaly
6.88996°
Mean anomaly
6.874°
Eccentric anomaly
6.88198°
Mean motion
3.82742 °/min
Orbital period
94.06 mins
BSTAR
0.00030496
Loading maneuver chart data...
Computing Atmospheric mass density...
Loading historical data...
Loading historical data...
Loading historical data...
Loading historical data...
Loading historical data...
Loading historical data...
Loading historical data...
Other satellites on launch #54 in the year 2020 (2020-08-06 UTC)

Documentation

Showing up to 5 results
|